Time,TemperatureF,DewpointF,PressureIn,WindDirection,WindDirectionDegrees,WindSpeedMPH,WindSpeedGustMPH,Humidity,HourlyPrecipIn,Conditions,Clouds,dailyrainin,SoftwareType,DateUTC
2013-03-26 00:00:00,33.2,28.3,29.94,NW,323,4.0,10.0,82,0.00,,---,0.01,VWS V14.01,2013-03-26 04:00:00,
2013-03-26 00:01:00,33.2,28.3,29.94,NW,324,3.0,6.0,82,0.00,,---,0.00,VWS V14.01,2013-03-26 04:01:00,
2013-03-26 00:06:00,33.1,28.2,29.94,NW,320,6.0,9.0,82,0.00,,---,0.00,VWS V14.01,2013-03-26 04:06:00,
2013-03-26 00:11:00,33.1,28.2,29.94,NW,307,7.0,9.0,82,0.00,,---,0.00,VWS V14.01,2013-03-26 04:11:00,
2013-03-26 00:16:00,33.1,28.2,29.95,NW,324,7.0,9.0,82,0.00,,---,0.00,VWS V14.01,2013-03-26 04:16:00,
2013-03-26 00:21:00,33.1,28.2,29.95,NNW,327,6.0,9.0,82,0.00,,---,0.00,VWS V14.01,2013-03-26 04:21:00,
2013-03-26 00:27:00,33.1,28.2,29.95,NW,322,6.0,9.0,82,0.00,,---,0.00,VWS V14.01,2013-03-26 04:27:00,
2013-03-26 00:32:00,33.0,28.1,29.95,NW,313,6.0,6.0,82,0.00,,---,0.00,VWS V14.01,2013-03-26 04:32:00,
2013-03-26 00:37:00,33.0,28.1,29.95,NNW,333,5.0,7.0,82,0.00,,---,0.00,VWS V14.01,2013-03-26 04:37:00,
2013-03-26 00:42:00,33.0,28.1,29.95,NW,323,2.0,8.0,82,0.00,,---,0.00,VWS V14.01,2013-03-26 04:42:00,
2013-03-26 00:47:00,33.0,28.1,29.95,NNW,333,6.0,8.0,82,0.00,,---,0.00,VWS V14.01,2013-03-26 04:47:00,
2013-03-26 00:52:00,33.0,28.1,29.95,NW,325,4.0,8.0,82,0.00,,---,0.00,VWS V14.01,2013-03-26 04:52:00,
2013-03-26 00:57:00,32.9,28.0,29.95,NNW,331,5.0,8.0,82,0.00,,---,0.00,VWS V14.01,2013-03-26 04:57:00,
2013-03-26 01:02:00,33.0,28.1,29.95,NW,321,3.0,5.0,82,0.00,,---,0.00,VWS V14.01,2013-03-26 05:02:00,
2013-03-26 01:07:00,32.9,28.3,29.95,NW,319,3.0,7.0,83,0.00,,---,0.00,VWS V14.01,2013-03-26 05:07:00,
2013-03-26 01:12:00,32.8,28.2,29.96,NW,314,3.0,7.0,83,0.00,,---,0.00,VWS V14.01,2013-03-26 05:12:00,
2013-03-26 01:17:00,32.8,28.2,29.96,NW,312,3.0,7.0,83,0.00,,---,0.00,VWS V14.01,2013-03-26 05:17:00,
2013-03-26 01:22:00,32.8,28.2,29.96,NW,325,3.0,7.0,83,0.00,,---,0.00,VWS V14.01,2013-03-26 05:22:00,
2013-03-26 01:27:00,32.8,28.2,29.96,NNW,333,3.0,7.0,83,0.00,,---,0.00,VWS V14.01,2013-03-26 05:27:00,
2013-03-26 01:32:00,32.8,28.2,29.96,NNW,327,7.0,7.0,83,0.00,,---,0.00,VWS V14.01,2013-03-26 05:32:00,
2013-03-26 01:37:00,32.8,28.2,29.96,NW,320,2.0,7.0,83,0.00,,---,0.00,VWS V14.01,2013-03-26 05:37:00,
2013-03-26 01:42:00,32.7,28.1,29.96,NW,318,3.0,7.0,83,0.00,,---,0.00,VWS V14.01,2013-03-26 05:42:00,
2013-03-26 01:47:00,32.6,28.0,29.96,NNW,336,3.0,7.0,83,0.00,,---,0.00,VWS V14.01,2013-03-26 05:47:00,
2013-03-26 01:52:00,32.7,28.1,29.97,NW,317,2.0,7.0,83,0.00,,---,0.00,VWS V14.01,2013-03-26 05:52:00,
2013-03-26 01:57:00,32.6,28.0,29.97,NNW,327,4.0,7.0,83,0.00,,---,0.00,VWS V14.01,2013-03-26 05:57:00,
2013-03-26 02:02:00,32.6,28.0,29.97,NW,319,4.0,6.0,83,0.00,,---,0.00,VWS V14.01,2013-03-26 06:02:00,
2013-03-26 02:12:00,32.6,28.3,29.97,NW,318,3.0,7.0,84,0.00,,---,0.00,VWS V14.01,2013-03-26 06:12:00,
2013-03-26 02:17:00,32.6,28.3,29.97,NW,320,3.0,7.0,84,0.00,,---,0.00,VWS V14.01,2013-03-26 06:17:00,
2013-03-26 02:22:00,32.5,28.2,29.97,NNW,331,5.0,7.0,84,0.00,,---,0.00,VWS V14.01,2013-03-26 06:22:00,
2013-03-26 02:27:00,32.5,28.2,29.97,NW,326,3.0,7.0,84,0.00,,---,0.00,VWS V14.01,2013-03-26 06:27:00,
2013-03-26 02:32:00,32.5,28.2,29.97,NW,320,2.0,7.0,84,0.00,,---,0.00,VWS V14.01,2013-03-26 06:32:00,
2013-03-26 02:37:00,32.5,28.2,29.97,NNW,329,4.0,7.0,84,0.00,,---,0.00,VWS V14.01,2013-03-26 06:37:00,
2013-03-26 02:42:00,32.4,28.1,29.97,NW,319,3.0,7.0,84,0.00,,---,0.00,VWS V14.01,2013-03-26 06:42:00,
2013-03-26 02:47:00,32.4,28.1,29.97,NW,317,4.0,7.0,84,0.00,,---,0.00,VWS V14.01,2013-03-26 06:47:00,
2013-03-26 02:52:00,32.4,28.1,29.97,NW,311,4.0,7.0,84,0.00,,---,0.00,VWS V14.01,2013-03-26 06:52:00,
2013-03-26 02:57:00,32.4,28.1,29.97,NW,318,4.0,7.0,84,0.00,,---,0.00,VWS V14.01,2013-03-26 06:57:00,
2013-03-26 03:02:00,32.4,28.1,29.97,NW,325,4.0,5.0,84,0.00,,---,0.00,VWS V14.01,2013-03-26 07:02:00,
2013-03-26 03:07:00,32.3,28.0,29.97,NW,318,4.0,5.0,84,0.00,,---,0.00,VWS V14.01,2013-03-26 07:07:00,
2013-03-26 03:12:00,32.3,28.0,29.98,NW,318,3.0,6.0,84,0.00,,---,0.00,VWS V14.01,2013-03-26 07:12:00,
2013-03-26 03:17:00,32.3,28.0,29.98,NNW,333,4.0,6.0,84,0.00,,---,0.00,VWS V14.01,2013-03-26 07:17:00,
2013-03-26 03:22:00,32.3,28.0,29.98,NW,322,2.0,6.0,84,0.00,,---,0.00,VWS V14.01,2013-03-26 07:22:00,
2013-03-26 03:27:00,32.3,28.0,29.98,NW,317,2.0,6.0,84,0.00,,---,0.00,VWS V14.01,2013-03-26 07:27:00,
2013-03-26 03:32:00,32.2,27.9,29.97,NW,323,3.0,5.0,84,0.00,,---,0.00,VWS V14.01,2013-03-26 07:32:00,
2013-03-26 03:37:00,32.2,27.9,29.98,NNW,327,3.0,5.0,84,0.00,,---,0.00,VWS V14.01,2013-03-26 07:37:00,
2013-03-26 03:42:00,32.2,27.9,29.98,NW,325,2.0,5.0,84,0.00,,---,0.00,VWS V14.01,2013-03-26 07:42:00,
2013-03-26 03:47:00,32.1,27.8,29.97,NW,320,2.0,5.0,84,0.00,,---,0.00,VWS V14.01,2013-03-26 07:47:00,
2013-03-26 03:52:00,32.0,28.0,29.97,NW,316,4.0,5.0,85,0.00,,---,0.00,VWS V14.01,2013-03-26 07:52:00,
2013-03-26 03:58:00,32.0,28.0,29.98,NW,313,2.0,5.0,85,0.00,,---,0.00,VWS V14.01,2013-03-26 07:58:00,
2013-03-26 04:03:00,32.0,28.0,29.98,NW,314,2.0,5.0,85,0.00,,---,0.00,VWS V14.01,2013-03-26 08:03:00,
2013-03-26 04:08:00,32.0,27.7,29.97,NW,315,3.0,5.0,84,0.00,,---,0.00,VWS V14.01,2013-03-26 08:08:00,
2013-03-26 04:13:00,32.0,27.7,29.98,NW,319,3.0,5.0,84,0.00,,---,0.00,VWS V14.01,2013-03-26 08:13:00,
2013-03-26 04:18:00,31.9,27.9,29.98,NW,306,2.0,5.0,85,0.00,,---,0.00,VWS V14.01,2013-03-26 08:18:00,
2013-03-26 04:23:00,31.9,27.9,29.98,NW,306,1.0,5.0,85,0.00,,---,0.00,VWS V14.01,2013-03-26 08:23:00,
2013-03-26 04:28:00,31.9,27.9,29.98,NW,308,2.0,5.0,85,0.00,,---,0.00,VWS V14.01,2013-03-26 08:28:00,
2013-03-26 04:33:00,31.9,27.9,29.98,NW,304,2.0,4.0,85,0.00,,---,0.00,VWS V14.01,2013-03-26 08:33:00,
2013-03-26 04:38:00,31.9,27.6,29.98,NW,313,3.0,4.0,84,0.00,,---,0.00,VWS V14.01,2013-03-26 08:38:00,
2013-03-26 04:43:00,31.9,27.6,29.98,WNW,300,3.0,5.0,84,0.00,,---,0.00,VWS V14.01,2013-03-26 08:43:00,
2013-03-26 04:48:00,31.9,27.6,29.98,NW,309,2.0,5.0,84,0.00,,---,0.00,VWS V14.01,2013-03-26 08:48:00,
2013-03-26 04:53:00,31.8,27.5,29.98,NW,315,4.0,5.0,84,0.00,,---,0.00,VWS V14.01,2013-03-26 08:53:00,
2013-03-26 04:58:00,31.7,27.7,29.98,NW,315,3.0,5.0,85,0.00,,---,0.00,VWS V14.01,2013-03-26 08:58:00,
2013-03-26 05:03:00,31.8,27.8,29.98,NW,309,4.0,4.0,85,0.00,,---,0.00,VWS V14.01,2013-03-26 09:03:00,
2013-03-26 05:08:00,31.8,27.5,29.98,NW,310,4.0,6.0,84,0.00,,---,0.00,VWS V14.01,2013-03-26 09:08:00,
2013-03-26 05:13:00,31.8,27.5,29.99,NW,304,4.0,6.0,84,0.00,,---,0.00,VWS V14.01,2013-03-26 09:13:00,
2013-03-26 05:18:00,31.7,27.4,29.99,NW,306,4.0,6.0,84,0.00,,---,0.00,VWS V14.01,2013-03-26 09:18:00,
2013-03-26 05:23:00,31.8,27.5,29.99,WNW,285,5.0,6.0,84,0.00,,---,0.00,VWS V14.01,2013-03-26 09:23:00,
2013-03-26 05:28:00,31.8,27.5,29.99,WNW,299,3.0,6.0,84,0.00,,---,0.00,VWS V14.01,2013-03-26 09:28:00,
2013-03-26 05:33:00,31.8,27.5,29.99,NW,312,4.0,5.0,84,0.00,,---,0.00,VWS V14.01,2013-03-26 09:33:00,
2013-03-26 05:38:00,31.8,27.5,29.99,WNW,301,3.0,5.0,84,0.00,,---,0.00,VWS V14.01,2013-03-26 09:38:00,
2013-03-26 05:43:00,31.8,27.5,29.99,WNW,299,4.0,5.0,84,0.00,,---,0.00,VWS V14.01,2013-03-26 09:43:00,
2013-03-26 05:48:00,31.7,27.7,29.99,WNW,298,5.0,5.0,85,0.00,,---,0.00,VWS V14.01,2013-03-26 09:48:00,
2013-03-26 05:53:00,31.7,27.7,29.99,WNW,298,3.0,5.0,85,0.00,,---,0.00,VWS V14.01,2013-03-26 09:53:00,
2013-03-26 05:58:00,31.6,27.6,29.99,WNW,292,4.0,5.0,85,0.00,,---,0.00,VWS V14.01,2013-03-26 09:58:00,
2013-03-26 06:03:00,31.5,27.5,29.99,WNW,293,2.0,4.0,85,0.00,,---,0.00,VWS V14.01,2013-03-26 10:03:00,
2013-03-26 06:08:00,31.5,27.5,29.99,WNW,290,6.0,6.0,85,0.00,,---,0.00,VWS V14.01,2013-03-26 10:08:00,
2013-03-26 06:13:00,31.6,27.9,29.99,WNW,292,3.0,7.0,86,0.00,,---,0.00,VWS V14.01,2013-03-26 10:13:00,
2013-03-26 06:18:00,31.6,27.9,30.00,WNW,287,2.0,7.0,86,0.00,,---,0.00,VWS V14.01,2013-03-26 10:18:00,
2013-03-26 06:23:00,31.6,27.9,30.00,WNW,292,4.0,7.0,86,0.00,,---,0.00,VWS V14.01,2013-03-26 10:23:00,
2013-03-26 06:28:00,31.6,27.9,30.00,WNW,288,4.0,7.0,86,0.00,,---,0.00,VWS V14.01,2013-03-26 10:28:00,
2013-03-26 06:33:00,31.6,27.9,30.00,WNW,296,3.0,4.0,86,0.00,,---,0.00,VWS V14.01,2013-03-26 10:33:00,
2013-03-26 06:38:00,31.6,27.9,30.00,WNW,298,4.0,5.0,86,0.00,,---,0.00,VWS V14.01,2013-03-26 10:38:00,
2013-03-26 06:43:00,31.6,27.9,30.01,WNW,292,3.0,5.0,86,0.00,,---,0.00,VWS V14.01,2013-03-26 10:43:00,
2013-03-26 06:48:00,31.6,27.9,30.01,NW,305,3.0,7.0,86,0.00,,---,0.00,VWS V14.01,2013-03-26 10:48:00,
2013-03-26 06:53:00,31.6,27.9,30.01,WNW,296,3.0,7.0,86,0.00,,---,0.00,VWS V14.01,2013-03-26 10:53:00,
2013-03-26 06:58:00,31.7,28.0,30.01,WNW,285,1.0,7.0,86,0.00,,---,0.00,VWS V14.01,2013-03-26 10:58:00,
2013-03-26 07:03:00,31.6,27.9,30.01,WNW,297,3.0,6.0,86,0.00,,---,0.00,VWS V14.01,2013-03-26 11:03:00,
2013-03-26 07:08:00,31.6,27.9,30.01,NW,309,3.0,6.0,86,0.00,,---,0.00,VWS V14.01,2013-03-26 11:08:00,
2013-03-26 07:13:00,31.5,27.8,30.02,WNW,298,3.0,6.0,86,0.00,,---,0.00,VWS V14.01,2013-03-26 11:13:00,
2013-03-26 07:18:00,31.5,27.8,30.02,WNW,299,5.0,6.0,86,0.00,,---,0.00,VWS V14.01,2013-03-26 11:18:00,
2013-03-26 07:23:00,31.5,27.8,30.02,NW,306,5.0,6.0,86,0.00,,---,0.00,VWS V14.01,2013-03-26 11:23:00,
2013-03-26 07:28:00,31.4,27.7,30.02,NW,312,5.0,7.0,86,0.00,,---,0.00,VWS V14.01,2013-03-26 11:28:00,
2013-03-26 07:33:00,31.4,27.7,30.02,WNW,302,3.0,6.0,86,0.00,,---,0.00,VWS V14.01,2013-03-26 11:33:00,
2013-03-26 07:38:00,31.4,28.0,30.02,WNW,302,2.0,6.0,87,0.00,,---,0.00,VWS V14.01,2013-03-26 11:38:00,
2013-03-26 07:43:00,31.3,27.9,30.03,WNW,302,2.0,6.0,87,0.00,,---,0.00,VWS V14.01,2013-03-26 11:43:00,
2013-03-26 07:48:00,31.3,27.9,30.03,NW,308,3.0,6.0,87,0.00,,---,0.00,VWS V14.01,2013-03-26 11:48:00,
2013-03-26 07:53:00,31.4,28.3,30.03,WNW,303,6.0,7.0,88,0.00,,---,0.00,VWS V14.01,2013-03-26 11:53:00,
2013-03-26 07:58:00,31.5,28.4,30.03,WNW,288,4.0,7.0,88,0.00,,---,0.00,VWS V14.01,2013-03-26 11:58:00,
2013-03-26 08:03:00,31.5,28.4,30.04,WNW,294,4.0,7.0,88,0.00,,---,0.00,VWS V14.01,2013-03-26 12:03:00,
2013-03-26 08:08:00,31.6,28.5,30.04,WNW,299,5.0,7.0,88,0.00,,---,0.00,VWS V14.01,2013-03-26 12:08:00,
2013-03-26 08:13:00,31.6,28.5,30.04,NW,318,3.0,7.0,88,0.00,,---,0.00,VWS V14.01,2013-03-26 12:13:00,
2013-03-26 08:18:00,31.7,28.6,30.04,NW,323,4.0,7.0,88,0.00,,---,0.00,VWS V14.01,2013-03-26 12:18:00,
2013-03-26 08:23:00,31.7,28.8,30.05,NNW,333,5.0,7.0,89,0.00,,---,0.00,VWS V14.01,2013-03-26 12:23:00,
2013-03-26 08:28:00,31.8,28.9,30.05,NW,321,6.0,7.0,89,0.00,,---,0.00,VWS V14.01,2013-03-26 12:28:00,
2013-03-26 08:33:00,31.9,29.0,30.05,NW,316,6.0,6.0,89,0.00,,---,0.00,VWS V14.01,2013-03-26 12:33:00,
2013-03-26 08:38:00,32.0,29.1,30.05,NNW,336,6.0,6.0,89,0.00,,---,0.00,VWS V14.01,2013-03-26 12:38:00,
2013-03-26 08:43:00,32.1,29.2,30.05,NW,310,8.0,8.0,89,0.00,,---,0.00,VWS V14.01,2013-03-26 12:43:00,
2013-03-26 08:48:00,32.2,29.3,30.05,NW,313,5.0,9.0,89,0.00,,---,0.00,VWS V14.01,2013-03-26 12:48:00,
2013-03-26 08:53:00,32.3,29.4,30.05,NW,311,5.0,9.0,89,0.00,,---,0.00,VWS V14.01,2013-03-26 12:53:00,
2013-03-26 08:58:00,32.3,29.4,30.06,NW,308,2.0,9.0,89,0.00,,---,0.00,VWS V14.01,2013-03-26 12:58:00,
2013-03-26 09:03:00,32.4,29.5,30.06,NNW,331,4.0,7.0,89,0.00,,---,0.00,VWS V14.01,2013-03-26 13:03:00,
2013-03-26 09:08:00,32.4,29.5,30.06,NW,319,5.0,7.0,89,0.00,,---,0.00,VWS V14.01,2013-03-26 13:08:00,
2013-03-26 09:13:00,32.5,29.6,30.06,NW,324,5.0,8.0,89,0.00,,---,0.00,VWS V14.01,2013-03-26 13:13:00,
2013-03-26 09:18:00,32.6,29.5,30.06,NNW,327,6.0,8.0,88,0.00,,---,0.00,VWS V14.01,2013-03-26 13:18:00,
2013-03-26 09:23:00,32.7,29.5,30.06,NW,306,4.0,8.0,88,0.00,,---,0.00,VWS V14.01,2013-03-26 13:23:00,
2013-03-26 09:29:00,32.9,29.7,30.06,NW,313,4.0,8.0,88,0.00,,---,0.00,VWS V14.01,2013-03-26 13:29:00,
2013-03-26 09:34:00,33.0,29.8,30.07,WNW,298,6.0,8.0,88,0.00,,---,0.00,VWS V14.01,2013-03-26 13:34:00,
2013-03-26 09:39:00,33.1,29.7,30.07,NW,324,4.0,9.0,87,0.00,,---,0.00,VWS V14.01,2013-03-26 13:39:00,
2013-03-26 09:44:00,33.3,29.9,30.07,NW,319,6.0,9.0,87,0.00,,---,0.00,VWS V14.01,2013-03-26 13:44:00,
2013-03-26 09:49:00,33.4,30.0,30.07,NW,326,8.0,9.0,87,0.00,,---,0.00,VWS V14.01,2013-03-26 13:49:00,
2013-03-26 09:54:00,33.5,30.0,30.07,WNW,297,4.0,9.0,87,0.00,,---,0.00,VWS V14.01,2013-03-26 13:54:00,
2013-03-26 09:59:00,33.7,30.0,30.08,NW,309,4.0,9.0,86,0.00,,---,0.00,VWS V14.01,2013-03-26 13:59:00,
2013-03-26 10:04:00,33.8,30.1,30.08,NW,309,4.0,8.0,86,0.00,,---,0.00,VWS V14.01,2013-03-26 14:04:00,
2013-03-26 10:09:00,34.0,30.3,30.08,NW,315,6.0,8.0,86,0.00,,---,0.00,VWS V14.01,2013-03-26 14:09:00,
2013-03-26 10:14:00,34.3,30.6,30.08,WNW,301,4.0,8.0,86,0.00,,---,0.00,VWS V14.01,2013-03-26 14:14:00,
2013-03-26 10:19:00,34.3,30.3,30.07,NW,323,5.0,8.0,85,0.00,,---,0.00,VWS V14.01,2013-03-26 14:19:00,
2013-03-26 10:24:00,34.4,30.4,30.08,West,281,8.0,9.0,85,0.00,,---,0.00,VWS V14.01,2013-03-26 14:24:00,
2013-03-26 10:29:00,34.4,30.1,30.08,WNW,294,7.0,9.0,84,0.00,,---,0.00,VWS V14.01,2013-03-26 14:29:00,
2013-03-26 10:34:00,34.6,30.3,30.08,WNW,301,5.0,10.0,84,0.00,,---,0.00,VWS V14.01,2013-03-26 14:34:00,
2013-03-26 10:39:00,34.9,30.3,30.08,NW,306,4.0,10.0,83,0.00,,---,0.00,VWS V14.01,2013-03-26 14:39:00,
2013-03-26 10:44:00,35.0,30.7,30.08,NW,309,4.0,10.0,84,0.00,,---,0.00,VWS V14.01,2013-03-26 14:44:00,
2013-03-26 10:49:00,35.3,31.0,30.08,NNW,327,7.0,10.0,84,0.00,,---,0.00,VWS V14.01,2013-03-26 14:49:00,
2013-03-26 10:54:00,35.4,30.5,30.08,NW,306,6.0,10.0,82,0.00,,---,0.00,VWS V14.01,2013-03-26 14:54:00,
2013-03-26 10:59:00,35.3,30.4,30.08,WNW,298,8.0,10.0,82,0.00,,---,0.00,VWS V14.01,2013-03-26 14:59:00,
2013-03-26 11:04:00,35.2,30.3,30.08,NW,316,7.0,10.0,82,0.00,,---,0.00,VWS V14.01,2013-03-26 15:04:00,
2013-03-26 11:09:00,35.3,30.4,30.08,NW,304,6.0,11.0,82,0.00,,---,0.00,VWS V14.01,2013-03-26 15:09:00,
2013-03-26 11:14:00,35.5,30.6,30.08,WNW,300,6.0,11.0,82,0.00,,---,0.00,VWS V14.01,2013-03-26 15:14:00,
2013-03-26 11:19:00,35.7,30.5,30.09,NW,313,8.0,11.0,81,0.00,,---,0.00,VWS V14.01,2013-03-26 15:19:00,
2013-03-26 11:24:00,35.6,30.4,30.09,WNW,301,4.0,11.0,81,0.00,,---,0.00,VWS V14.01,2013-03-26 15:24:00,
2013-03-26 11:29:00,35.6,30.4,30.09,WNW,299,4.0,11.0,81,0.00,,---,0.00,VWS V14.01,2013-03-26 15:29:00,
2013-03-26 11:34:00,35.7,30.8,30.09,WNW,299,5.0,11.0,82,0.00,,---,0.00,VWS V14.01,2013-03-26 15:34:00,
2013-03-26 11:39:00,36.2,30.6,30.09,NNW,331,12.0,13.0,80,0.00,,---,0.00,VWS V14.01,2013-03-26 15:39:00,
2013-03-26 11:44:00,36.0,30.8,30.09,WNW,301,4.0,13.0,81,0.00,,---,0.00,VWS V14.01,2013-03-26 15:44:00,
2013-03-26 11:49:00,36.4,31.1,30.09,NW,315,8.0,13.0,81,0.00,,---,0.00,VWS V14.01,2013-03-26 15:49:00,
2013-03-26 11:54:00,36.7,31.1,30.09,NW,321,8.0,13.0,80,0.00,,---,0.00,VWS V14.01,2013-03-26 15:54:00,
2013-03-26 11:59:00,36.9,31.0,30.09,WNW,302,8.0,13.0,79,0.00,,---,0.00,VWS V14.01,2013-03-26 15:59:00,
2013-03-26 12:04:00,37.0,30.8,30.09,NW,308,6.0,9.0,78,0.00,,---,0.00,VWS V14.01,2013-03-26 16:04:00,
2013-03-26 12:09:00,37.3,30.4,30.09,North,349,9.0,12.0,76,0.00,,---,0.00,VWS V14.01,2013-03-26 16:09:00,
2013-03-26 12:14:00,37.5,30.6,30.09,WNW,298,8.0,12.0,76,0.00,,---,0.00,VWS V14.01,2013-03-26 16:14:00,
2013-03-26 12:19:00,37.9,31.0,30.09,NNW,343,7.0,12.0,76,0.00,,---,0.00,VWS V14.01,2013-03-26 16:19:00,
2013-03-26 12:24:00,37.4,30.5,30.09,WNW,294,8.0,12.0,76,0.00,,---,0.00,VWS V14.01,2013-03-26 16:24:00,
2013-03-26 12:29:00,37.4,31.2,30.09,NW,319,4.0,12.0,78,0.00,,---,0.00,VWS V14.01,2013-03-26 16:29:00,
2013-03-26 12:34:00,37.4,31.5,30.09,NW,319,5.0,9.0,79,0.00,,---,0.00,VWS V14.01,2013-03-26 16:34:00,
2013-03-26 12:39:00,37.4,31.2,30.09,NW,324,5.0,11.0,78,0.00,,---,0.00,VWS V14.01,2013-03-26 16:39:00,
2013-03-26 12:44:00,38.8,32.5,30.09,NNW,345,8.0,11.0,78,0.00,,---,0.00,VWS V14.01,2013-03-26 16:44:00,
2013-03-26 12:49:00,38.1,30.2,30.09,NW,309,9.0,13.0,73,0.00,,---,0.00,VWS V14.01,2013-03-26 16:49:00,
2013-03-26 12:54:00,37.4,30.2,30.09,NNW,335,5.0,13.0,75,0.00,,---,0.00,VWS V14.01,2013-03-26 16:54:00,
2013-03-26 12:59:00,37.2,29.4,30.09,NW,314,7.0,13.0,73,0.00,,---,0.00,VWS V14.01,2013-03-26 16:59:00,
2013-03-26 13:04:00,38.4,30.9,30.09,WNW,286,7.0,7.0,74,0.00,,---,0.00,VWS V14.01,2013-03-26 17:04:00,
2013-03-26 13:09:00,38.9,30.7,30.09,West,273,4.0,11.0,72,0.00,,---,0.00,VWS V14.01,2013-03-26 17:09:00,
2013-03-26 13:14:00,39.1,30.9,30.09,West,263,7.0,11.0,72,0.00,,---,0.00,VWS V14.01,2013-03-26 17:14:00,
2013-03-26 13:19:00,38.6,31.0,30.09,West,275,5.0,11.0,74,0.00,,---,0.00,VWS V14.01,2013-03-26 17:19:00,
2013-03-26 13:24:00,38.2,31.0,30.09,WNW,288,6.0,11.0,75,0.00,,---,0.00,VWS V14.01,2013-03-26 17:24:00,
2013-03-26 13:29:00,38.0,30.8,30.09,West,279,9.0,11.0,75,0.00,,---,0.00,VWS V14.01,2013-03-26 17:29:00,
2013-03-26 13:34:00,38.2,30.7,30.09,West,273,7.0,10.0,74,0.00,,---,0.00,VWS V14.01,2013-03-26 17:34:00,
2013-03-26 13:39:00,38.2,30.7,30.09,WNW,286,7.0,10.0,74,0.00,,---,0.00,VWS V14.01,2013-03-26 17:39:00,
2013-03-26 13:44:00,38.1,29.9,30.09,WNW,285,8.0,12.0,72,0.00,,---,0.00,VWS V14.01,2013-03-26 17:44:00,
2013-03-26 13:49:00,38.0,29.5,30.09,West,279,8.0,12.0,71,0.00,,---,0.00,VWS V14.01,2013-03-26 17:49:00,
2013-03-26 13:54:00,37.9,30.0,30.09,West,270,7.0,12.0,73,0.00,,---,0.00,VWS V14.01,2013-03-26 17:54:00,
2013-03-26 13:59:00,37.8,30.3,30.09,WNW,285,10.0,12.0,74,0.00,,---,0.00,VWS V14.01,2013-03-26 17:59:00,
2013-03-26 14:04:00,37.8,29.9,30.09,West,266,6.0,11.0,73,0.00,,---,0.00,VWS V14.01,2013-03-26 18:04:00,
2013-03-26 14:09:00,38.3,30.4,30.09,WNW,286,6.0,11.0,73,0.00,,---,0.00,VWS V14.01,2013-03-26 18:09:00,
2013-03-26 14:14:00,38.8,29.9,30.09,West,270,9.0,11.0,70,0.00,,---,0.00,VWS V14.01,2013-03-26 18:14:00,
2013-03-26 14:19:00,39.4,30.8,30.09,West,278,7.0,14.0,71,0.00,,---,0.00,VWS V14.01,2013-03-26 18:19:00,
2013-03-26 14:24:00,39.5,29.8,30.09,West,272,10.0,14.0,68,0.00,,---,0.00,VWS V14.01,2013-03-26 18:24:00,
2013-03-26 14:29:00,38.6,28.6,30.09,West,270,8.0,14.0,67,0.00,,---,0.00,VWS V14.01,2013-03-26 18:29:00,
2013-03-26 14:34:00,37.9,27.9,30.09,WNW,289,8.0,13.0,67,0.00,,---,0.00,VWS V14.01,2013-03-26 18:34:00,
2013-03-26 14:39:00,37.6,28.4,30.09,West,270,8.0,13.0,69,0.00,,---,0.00,VWS V14.01,2013-03-26 18:39:00,
2013-03-26 14:44:00,37.5,29.0,30.09,West,263,8.0,14.0,71,0.00,,---,0.00,VWS V14.01,2013-03-26 18:44:00,
2013-03-26 14:49:00,37.6,28.4,30.09,WNW,302,8.0,14.0,69,0.00,,---,0.00,VWS V14.01,2013-03-26 18:49:00,
2013-03-26 14:54:00,37.8,28.9,30.09,NW,323,7.0,14.0,70,0.00,,---,0.00,VWS V14.01,2013-03-26 18:54:00,
2013-03-26 14:59:00,38.1,28.8,30.09,WNW,292,11.0,14.0,69,0.00,,---,0.00,VWS V14.01,2013-03-26 18:59:00,
2013-03-26 15:04:00,38.3,29.0,30.09,WSW,258,10.0,12.0,69,0.00,,---,0.00,VWS V14.01,2013-03-26 19:04:00,
2013-03-26 15:09:00,38.3,29.0,30.09,West,268,8.0,13.0,69,0.00,,---,0.00,VWS V14.01,2013-03-26 19:09:00,
2013-03-26 15:14:00,38.4,29.5,30.09,WNW,283,8.0,13.0,70,0.00,,---,0.00,VWS V14.01,2013-03-26 19:14:00,
2013-03-26 15:19:00,38.2,29.3,30.09,West,268,7.0,13.0,70,0.00,,---,0.00,VWS V14.01,2013-03-26 19:19:00,
2013-03-26 15:24:00,37.9,29.4,30.09,West,277,7.0,16.0,71,0.00,,---,0.00,VWS V14.01,2013-03-26 19:24:00,
2013-03-26 15:29:00,37.8,29.6,30.10,West,268,10.0,16.0,72,0.00,,---,0.00,VWS V14.01,2013-03-26 19:29:00,
2013-03-26 15:34:00,37.5,29.3,30.09,WNW,288,13.0,15.0,72,0.00,,---,0.00,VWS V14.01,2013-03-26 19:34:00,
2013-03-26 15:39:00,37.3,29.5,30.09,WNW,286,7.0,15.0,73,0.00,,---,0.00,VWS V14.01,2013-03-26 19:39:00,
2013-03-26 15:44:00,37.1,29.6,30.10,West,260,10.0,15.0,74,0.00,,---,0.00,VWS V14.01,2013-03-26 19:44:00,
2013-03-26 15:49:00,36.8,30.0,30.10,WNW,290,7.0,15.0,76,0.00,,---,0.00,VWS V14.01,2013-03-26 19:49:00,
2013-03-26 15:54:00,36.5,30.0,30.10,WSW,256,11.0,15.0,77,0.00,,---,0.00,VWS V14.01,2013-03-26 19:54:00,
2013-03-26 15:59:00,36.5,30.3,30.10,WSW,248,6.0,15.0,78,0.00,,---,0.00,VWS V14.01,2013-03-26 19:59:00,
2013-03-26 16:04:00,36.6,30.1,30.10,West,277,7.0,11.0,77,0.00,,---,0.00,VWS V14.01,2013-03-26 20:04:00,
2013-03-26 16:09:00,36.7,30.2,30.10,West,271,13.0,16.0,77,0.00,,---,0.00,VWS V14.01,2013-03-26 20:09:00,
2013-03-26 16:15:00,36.9,30.4,30.10,West,266,9.0,16.0,77,0.00,,---,0.00,VWS V14.01,2013-03-26 20:15:00,
2013-03-26 16:20:00,37.2,31.0,30.10,SW,232,9.0,16.0,78,0.00,,---,0.00,VWS V14.01,2013-03-26 20:20:00,
2013-03-26 16:25:00,37.2,30.7,30.10,West,279,7.0,16.0,77,0.00,,---,0.00,VWS V14.01,2013-03-26 20:25:00,
2013-03-26 16:30:00,37.0,30.8,30.10,West,280,9.0,16.0,78,0.00,,---,0.00,VWS V14.01,2013-03-26 20:30:00,
2013-03-26 16:35:00,36.6,31.0,30.10,WSW,250,7.0,11.0,80,0.00,,---,0.00,VWS V14.01,2013-03-26 20:35:00,
2013-03-26 16:40:00,36.5,31.5,30.10,WSW,244,7.0,11.0,82,0.00,,---,0.00,VWS V14.01,2013-03-26 20:40:00,
2013-03-26 16:45:00,36.3,31.6,30.10,West,266,8.0,12.0,83,0.00,,---,0.00,VWS V14.01,2013-03-26 20:45:00,
2013-03-26 16:50:00,36.3,31.6,30.10,WSW,248,6.0,12.0,83,0.00,,---,0.00,VWS V14.01,2013-03-26 20:50:00,
2013-03-26 16:55:00,36.4,31.7,30.10,West,259,5.0,12.0,83,0.00,,---,0.00,VWS V14.01,2013-03-26 20:55:00,
2013-03-26 17:00:00,36.6,31.6,30.10,WNW,282,9.0,12.0,82,0.00,,---,0.00,VWS V14.01,2013-03-26 21:00:00,
2013-03-26 17:05:00,36.6,31.3,30.10,WSW,248,6.0,15.0,81,0.00,,---,0.00,VWS V14.01,2013-03-26 21:05:00,
2013-03-26 17:10:00,36.6,30.7,30.10,West,278,9.0,15.0,79,0.00,,---,0.00,VWS V14.01,2013-03-26 21:10:00,
2013-03-26 17:15:00,37.0,30.8,30.10,West,268,7.0,15.0,78,0.00,,---,0.00,VWS V14.01,2013-03-26 21:15:00,
2013-03-26 17:20:00,37.4,30.9,30.10,WNW,290,11.0,15.0,77,0.00,,---,0.00,VWS V14.01,2013-03-26 21:20:00,
2013-03-26 17:25:00,37.5,31.0,30.11,WNW,302,8.0,15.0,77,0.00,,---,0.00,VWS V14.01,2013-03-26 21:25:00,
2013-03-26 17:30:00,37.5,31.0,30.11,NW,305,13.0,15.0,77,0.00,,---,0.00,VWS V14.01,2013-03-26 21:30:00,
2013-03-26 17:35:00,37.3,31.1,30.11,NW,307,12.0,13.0,78,0.00,,---,0.00,VWS V14.01,2013-03-26 21:35:00,
2013-03-26 17:40:00,37.3,31.1,30.11,WNW,283,12.0,13.0,78,0.00,,---,0.00,VWS V14.01,2013-03-26 21:40:00,
2013-03-26 17:45:00,37.3,30.8,30.11,West,267,12.0,14.0,77,0.00,,---,0.00,VWS V14.01,2013-03-26 21:45:00,
2013-03-26 17:50:00,37.5,31.3,30.11,WSW,250,10.0,14.0,78,0.00,,---,0.00,VWS V14.01,2013-03-26 21:50:00,
2013-03-26 17:55:00,37.5,31.3,30.11,WNW,285,7.0,14.0,78,0.00,,---,0.00,VWS V14.01,2013-03-26 21:55:00,
2013-03-26 18:00:00,38.5,32.2,30.11,WSW,255,11.0,14.0,78,0.00,,---,0.00,VWS V14.01,2013-03-26 22:00:00,
2013-03-26 18:05:00,38.2,31.0,30.11,West,269,7.0,15.0,75,0.00,,---,0.00,VWS V14.01,2013-03-26 22:05:00,
2013-03-26 18:10:00,37.4,30.5,30.11,WNW,282,11.0,15.0,76,0.00,,---,0.00,VWS V14.01,2013-03-26 22:10:00,
2013-03-26 18:15:00,37.4,30.9,30.11,WNW,282,11.0,15.0,77,0.00,,---,0.00,VWS V14.01,2013-03-26 22:15:00,
2013-03-26 18:20:00,37.3,30.8,30.11,West,270,7.0,15.0,77,0.00,,---,0.00,VWS V14.01,2013-03-26 22:20:00,
2013-03-26 18:25:00,37.7,31.5,30.12,WNW,288,8.0,15.0,78,0.00,,---,0.00,VWS V14.01,2013-03-26 22:25:00,
2013-03-26 18:30:00,37.5,30.0,30.12,West,275,6.0,9.0,74,0.00,,---,0.00,VWS V14.01,2013-03-26 22:30:00,
2013-03-26 18:35:00,37.2,29.7,30.12,NW,317,8.0,13.0,74,0.00,,---,0.00,VWS V14.01,2013-03-26 22:35:00,
2013-03-26 18:40:00,37.3,30.1,30.12,West,276,9.0,13.0,75,0.00,,---,0.00,VWS V14.01,2013-03-26 22:40:00,
2013-03-26 18:45:00,37.3,30.4,30.12,West,269,7.0,13.0,76,0.00,,---,0.00,VWS V14.01,2013-03-26 22:45:00,
2013-03-26 18:50:00,37.1,30.2,30.12,West,274,5.0,13.0,76,0.00,,---,0.00,VWS V14.01,2013-03-26 22:50:00,
2013-03-26 18:55:00,36.4,30.2,30.13,WNW,284,10.0,13.0,78,0.00,,---,0.00,VWS V14.01,2013-03-26 22:55:00,
2013-03-26 19:00:00,36.0,30.1,30.13,WNW,283,6.0,6.0,79,0.00,,---,0.00,VWS V14.01,2013-03-26 23:00:00,
2013-03-26 19:05:00,35.8,30.2,30.13,WNW,294,10.0,13.0,80,0.00,,---,0.00,VWS V14.01,2013-03-26 23:05:00,
2013-03-26 19:10:00,35.6,30.0,30.13,WNW,287,8.0,14.0,80,0.00,,---,0.00,VWS V14.01,2013-03-26 23:10:00,
2013-03-26 19:15:00,35.5,30.0,30.13,WNW,286,7.0,14.0,80,0.00,,---,0.00,VWS V14.01,2013-03-26 23:15:00,
2013-03-26 19:20:00,35.5,30.3,30.13,WNW,285,11.0,14.0,81,0.00,,---,0.00,VWS V14.01,2013-03-26 23:20:00,
2013-03-26 19:25:00,35.4,29.9,30.13,WNW,292,8.0,14.0,80,0.00,,---,0.00,VWS V14.01,2013-03-26 23:25:00,
2013-03-26 19:30:00,35.3,30.1,30.13,WNW,291,8.0,11.0,81,0.00,,---,0.00,VWS V14.01,2013-03-26 23:30:00,
2013-03-26 19:35:00,35.3,30.4,30.14,West,277,9.0,11.0,82,0.00,,---,0.00,VWS V14.01,2013-03-26 23:35:00,
2013-03-26 19:40:00,35.2,30.3,30.14,WNW,292,4.0,11.0,82,0.00,,---,0.00,VWS V14.01,2013-03-26 23:40:00,
2013-03-26 19:45:00,35.1,30.2,30.14,WNW,286,4.0,11.0,82,0.00,,---,0.00,VWS V14.01,2013-03-26 23:45:00,
2013-03-26 19:50:00,35.0,30.1,30.14,NW,306,9.0,11.0,82,0.00,,---,0.00,VWS V14.01,2013-03-26 23:50:00,
2013-03-26 19:55:00,34.9,30.3,30.14,WNW,287,8.0,13.0,83,0.00,,---,0.00,VWS V14.01,2013-03-26 23:55:00,
2013-03-26 20:00:00,34.8,30.2,30.14,NW,314,10.0,11.0,83,0.00,,---,0.00,VWS V14.01,2013-03-27 00:00:00,
2013-03-26 20:05:00,34.8,29.9,30.14,WNW,296,5.0,11.0,82,0.00,,---,0.00,VWS V14.01,2013-03-27 00:05:00,
2013-03-26 20:10:00,34.7,29.8,30.14,WNW,288,7.0,11.0,82,0.00,,---,0.00,VWS V14.01,2013-03-27 00:10:00,
2013-03-26 20:15:00,34.7,29.8,30.14,WNW,295,7.0,12.0,82,0.00,,---,0.00,VWS V14.01,2013-03-27 00:15:00,
2013-03-26 20:20:00,34.7,29.8,30.14,WNW,293,4.0,12.0,82,0.00,,---,0.00,VWS V14.01,2013-03-27 00:20:00,
2013-03-26 20:25:00,34.6,30.0,30.15,NW,307,8.0,12.0,83,0.00,,---,0.00,VWS V14.01,2013-03-27 00:25:00,
2013-03-26 20:30:00,34.6,30.0,30.15,WNW,302,5.0,5.0,83,0.00,,---,0.00,VWS V14.01,2013-03-27 00:30:00,
2013-03-26 20:35:00,34.6,30.0,30.15,WNW,303,8.0,11.0,83,0.00,,---,0.00,VWS V14.01,2013-03-27 00:35:00,
2013-03-26 20:40:00,34.6,30.0,30.15,WNW,298,6.0,11.0,83,0.00,,---,0.00,VWS V14.01,2013-03-27 00:40:00,
2013-03-26 20:45:00,34.5,29.9,30.15,WNW,291,6.0,11.0,83,0.00,,---,0.00,VWS V14.01,2013-03-27 00:45:00,
2013-03-26 20:50:00,34.6,30.3,30.15,WNW,289,7.0,11.0,84,0.00,,---,0.00,VWS V14.01,2013-03-27 00:50:00,
2013-03-26 20:55:00,34.6,30.3,30.15,WNW,302,7.0,11.0,84,0.00,,---,0.00,VWS V14.01,2013-03-27 00:55:00,
2013-03-26 21:00:00,34.6,30.0,30.15,WNW,291,5.0,7.0,83,0.00,,---,0.00,VWS V14.01,2013-03-27 01:00:00,
2013-03-26 21:05:00,34.6,30.0,30.16,WNW,291,5.0,7.0,83,0.00,,---,0.00,VWS V14.01,2013-03-27 01:05:00,
2013-03-26 21:10:00,34.5,30.2,30.16,NW,316,7.0,7.0,84,0.00,,---,0.00,VWS V14.01,2013-03-27 01:10:00,
2013-03-26 21:15:00,34.5,30.2,30.16,NW,307,5.0,9.0,84,0.00,,---,0.00,VWS V14.01,2013-03-27 01:15:00,
2013-03-26 21:20:00,34.6,30.0,30.16,WNW,292,4.0,9.0,83,0.00,,---,0.00,VWS V14.01,2013-03-27 01:20:00,
2013-03-26 21:25:00,34.5,30.2,30.16,WNW,299,6.0,9.0,84,0.00,,---,0.00,VWS V14.01,2013-03-27 01:25:00,
2013-03-26 21:30:00,34.5,30.2,30.16,WNW,286,6.0,6.0,84,0.00,,---,0.00,VWS V14.01,2013-03-27 01:30:00,
2013-03-26 21:35:00,34.5,29.9,30.16,WNW,294,4.0,8.0,83,0.00,,---,0.00,VWS V14.01,2013-03-27 01:35:00,
2013-03-26 21:41:00,34.4,29.8,30.16,WNW,298,6.0,9.0,83,0.00,,---,0.00,VWS V14.01,2013-03-27 01:41:00,
2013-03-26 21:46:00,34.4,29.8,30.16,WNW,303,6.0,9.0,83,0.00,,---,0.00,VWS V14.01,2013-03-27 01:46:00,
2013-03-26 21:51:00,34.4,29.8,30.16,NW,305,7.0,11.0,83,0.00,,---,0.00,VWS V14.01,2013-03-27 01:51:00,
2013-03-26 21:56:00,34.4,29.8,30.17,WNW,297,5.0,11.0,83,0.00,,---,0.00,VWS V14.01,2013-03-27 01:56:00,
2013-03-26 22:01:00,34.3,29.7,30.17,WNW,288,5.0,6.0,83,0.00,,---,0.00,VWS V14.01,2013-03-27 02:01:00,
2013-03-26 22:06:00,34.3,30.0,30.17,WNW,287,3.0,8.0,84,0.00,,---,0.00,VWS V14.01,2013-03-27 02:06:00,
2013-03-26 22:11:00,34.3,30.0,30.17,WNW,303,4.0,8.0,84,0.00,,---,0.00,VWS V14.01,2013-03-27 02:11:00,
2013-03-26 22:16:00,34.2,29.9,30.17,NW,307,7.0,8.0,84,0.00,,---,0.00,VWS V14.01,2013-03-27 02:16:00,
2013-03-26 22:21:00,34.2,29.9,30.17,NW,309,4.0,8.0,84,0.00,,---,0.00,VWS V14.01,2013-03-27 02:21:00,
2013-03-26 22:26:00,34.1,29.5,30.17,NW,306,6.0,8.0,83,0.00,,---,0.00,VWS V14.01,2013-03-27 02:26:00,
2013-03-26 22:31:00,34.1,29.5,30.17,WNW,298,5.0,7.0,83,0.00,,---,0.00,VWS V14.01,2013-03-27 02:31:00,
2013-03-26 22:36:00,34.1,29.8,30.17,WNW,284,6.0,9.0,84,0.00,,---,0.00,VWS V14.01,2013-03-27 02:36:00,
2013-03-26 22:41:00,34.0,29.7,30.17,WNW,292,5.0,9.0,84,0.00,,---,0.00,VWS V14.01,2013-03-27 02:41:00,
2013-03-26 22:46:00,34.0,29.7,30.17,WNW,286,6.0,9.0,84,0.00,,---,0.00,VWS V14.01,2013-03-27 02:46:00,
2013-03-26 22:51:00,34.0,29.4,30.17,WNW,298,6.0,9.0,83,0.00,,---,0.00,VWS V14.01,2013-03-27 02:51:00,
2013-03-26 22:56:00,34.1,29.8,30.17,WNW,302,3.0,9.0,84,0.00,,---,0.00,VWS V14.01,2013-03-27 02:56:00,
2013-03-26 23:06:00,34.0,29.4,30.17,WNW,302,5.0,8.0,83,0.00,,---,0.00,VWS V14.01,2013-03-27 03:06:00,
2013-03-26 23:11:00,34.0,29.4,30.17,NW,306,5.0,8.0,83,0.00,,---,0.00,VWS V14.01,2013-03-27 03:11:00,
2013-03-26 23:16:00,33.9,29.3,30.17,WNW,296,6.0,8.0,83,0.00,,---,0.00,VWS V14.01,2013-03-27 03:16:00,
2013-03-26 23:21:00,33.9,29.6,30.17,WNW,298,6.0,8.0,84,0.00,,---,0.00,VWS V14.01,2013-03-27 03:21:00,
2013-03-26 23:26:00,33.9,29.6,30.17,WNW,303,8.0,10.0,84,0.00,,---,0.00,VWS V14.01,2013-03-27 03:26:00,
2013-03-26 23:31:00,33.9,29.6,30.17,WNW,284,6.0,7.0,84,0.00,,---,0.00,VWS V14.01,2013-03-27 03:31:00,
2013-03-26 23:36:00,33.9,29.6,30.17,WNW,297,4.0,7.0,84,0.00,,---,0.00,VWS V14.01,2013-03-27 03:36:00,
2013-03-26 23:41:00,33.8,29.8,30.17,WNW,294,7.0,7.0,85,0.00,,---,0.00,VWS V14.01,2013-03-27 03:41:00,
2013-03-26 23:46:00,33.7,29.7,30.17,WNW,288,4.0,7.0,85,0.00,,---,0.00,VWS V14.01,2013-03-27 03:46:00,
2013-03-26 23:51:00,33.7,29.7,30.17,WNW,293,4.0,7.0,85,0.00,,---,0.00,VWS V14.01,2013-03-27 03:51:00,
2013-03-26 23:56:00,33.6,29.9,30.17,WNW,288,4.0,8.0,86,0.00,,---,0.00,VWS V14.01,2013-03-27 03:56:00,